STARLINK-34205, 64741

Orbit data source: Space-Track

STARLINK-34205, 64741 is a payload satellite owned by SpaceX/Seattle (US) in LEO that was launched on Wed, 02 Jul 2025 UTC via an FALCON 9 launch vehicle from the Air Force Eastern Test Range (AFETR). Payload-class satellites include a variety of spacecraft equipped with specific instruments for various scientific and technological missions. These include communications satellites like Starlink; space stations such as the ISS; scientific satellites like the Hubble; Earth observation satellites from companies like Planet Labs, Umbra, and HawkEye 360; GPS; miniature CubeSats for education and research; and military/defense satellites.

Loading next visibility...
Identifier
64741, 2025-144T
Orbit
LEO
Country
Flag of USUS
Related business
Manufacturer
SpaceX/Seattle
Mission
Operational Commercial Communications
Bus & Motor
STARLINK V2MO, Unknown motor
Mass
575 kg wet, ~530 kg dry
Launch date (UTC)
2025-07-02 (1 year ago)
Launch vehicle
FALCON 9
Launch site
Air Force Eastern Test Range (AFETR)
Object type
Payload
Rocket body
Debris
Shape & HBR
Box + 2 Pan, 17.7 m
Radar Cross Section
36.964 m², Large (>1 m²)

Expand to show TLE details & history
Last TLE update: 2 days ago

TLE from 2 days ago
0 STARLINK-34205
1 64741U 25144T   26170.00642636  .00024890  00000-0  84958-3 0  9991
2 64741  53.1583  70.4564 0001756  77.9001 282.2196 15.30202929 55225
Epoch: 2026-06-19T00:09Z
TLE epoch observation values (Epoch: 2026-06-19T00:09:15.237Z)
Latitude
-0.00006°
Longitude
160.90127°
Altitude
475.851 km
Speed
7.629 km/s
True Right ascension
04h 41m 49s
True Declination
0° 00' 00"
Sunlit
Object was in daylight at epoch
Visualization orbit readout
Latitude
Unknown
Longitude
Unknown
Altitude
Unknown
Speed
Unknown
Apparent Right ascension
Unknown
Apparent Declination
Unknown
Sunlit
N/A
Visualization observer readout
Local Sidereal Time
07:20:21
Azimuth
Unknown
Elevation
Unknown
Doppler factor
Unknown
Orbital elements
Apogee altitude
476.667 km
Perigee altitude
474.26 km
Semi-major axis
6,853.6 km
Eccentricity
0.00018
Inclination
53.1583°
RAAN
70.4564°
Arg. of periapsis
77.9001°
True anomaly
282.19993°
Mean anomaly
282.2196°
Eccentric anomaly
282.20977°
Mean motion
3.8253 °/min
Orbital period
94.11 mins
BSTAR
0.00084958
Loading maneuver chart data...
Computing Atmospheric mass density...
Loading historical data...
Loading historical data...
Loading historical data...
Loading historical data...
Loading historical data...
Loading historical data...
Loading historical data...

Documentation

Showing up to 5 results
|